Flag for U.S.A. Weather past 2 weeks in Carson City, Nevada, U.S.A.

Now
74 °F

Passing clouds.


Feels Like: 74 °F
Forecast: 37 / 74 °F
Wind: 3 mph from North

Location: Reno Tahoe International Airport

Current Time: Mar 29, 2015 at 5:51:29 PM

Latest Report: Mar 29, 2015 at 4:55 PM


Visibility: 10 mi

Pressure: 30.01 "Hg

Humidity: 9%

Dew point: 12 °F

Location of Carson CityLocation

Historic Weather in Carson City — Graph

°F

Carson City temperature yesterday

Maximum temperature yesterday: 71 °F (at 2:55 PM)
Minimum temperature yesterday: 45 °F (at 6:55 AM)
Average temperature yesterday: 59 °F

Past Weeks' High & Low Weather Summary

 TemperatureHumidityPressure
High78 °F (Mar 27, 2:55 PM)82% (Mar 25, 5:55 AM)30.35 "Hg (Mar 25, 5:55 AM)
Low35 °F (Mar 25, 6:55 AM)8% (Mar 28, 4:55 PM)29.90 "Hg (Mar 16, 4:55 PM)
Average56 °F36%30.08 "Hg
* Reported Mar 14 3:55 PM — Mar 29 3:55 PM, Carson City, Weather by CustomWeather, © 2015

Note: Actual official high and low records may vary slightly from our data, if they occured in-between our weather recording intervals... More about our weather records

Advertising

Carson City weather history for previous 24 hours

 ConditionsComfort  
Time TempWeatherWind HumidityBarometerVisibility
3:55 PM
Sun, Mar 29
74 °FPassing clouds.7 mph9%30.02 "Hg10 mi
2:55 PM74 °FPassing clouds.5 mph9%30.04 "Hg10 mi
1:55 PM72 °FPassing clouds.No wind9%30.06 "Hg10 mi
12:55 PM69 °FPassing clouds.3 mph10%30.10 "Hg10 mi
11:55 AM65 °FPassing clouds.No wind13%30.14 "Hg10 mi
10:55 AM59 °FPassing clouds.No wind16%30.17 "Hg10 mi
9:55 AM54 °FScattered clouds.No wind22%30.20 "Hg10 mi
8:55 AM46 °FScattered clouds.No wind33%30.20 "Hg10 mi
7:55 AM42 °FPassing clouds.3 mph41%30.22 "Hg10 mi
6:55 AM39 °FPassing clouds.No wind46%30.19 "Hg10 mi
5:55 AM38 °FPassing clouds.No wind51%30.18 "Hg10 mi
4:55 AM42 °FPassing clouds.5 mph39%30.17 "Hg10 mi
3:55 AM42 °FPassing clouds.No wind39%30.18 "Hg10 mi
2:55 AM44 °FPassing clouds.3 mph37%30.18 "Hg10 mi
1:55 AM47 °FPassing clouds.No wind29%30.19 "Hg10 mi
12:55 AM48 °FPassing clouds.6 mph29%30.18 "Hg10 mi
11:55 PM
Sat, Mar 28
52 °FPassing clouds.No wind24%30.16 "Hg10 mi
10:55 PM54 °FPassing clouds.5 mph21%30.17 "Hg10 mi
9:55 PM57 °FPassing clouds.No wind18%30.16 "Hg10 mi
8:55 PM61 °FPassing clouds.5 mph14%30.16 "Hg10 mi
7:55 PM63 °FPartly sunny.6 mph11%30.14 "Hg10 mi
6:55 PM67 °FPartly sunny.14 mph10%30.12 "Hg10 mi
5:55 PM71 °FBroken clouds.9 mph9%30.09 "Hg10 mi
Weather by CustomWeather, © 2015

See weather overviewHow to use our weather pages